Humidity-temperature Sensor

Selected Measurement Type: Air Temperature

 
Air Temperature [°C]     6 entries per hour
Showing data from 9/26/2022 (00:00:00 Z) to 9/25/2022 (00:01:00 Z)
Previous Next [ Day | 3-Days | 7-Days ]
First Last
Prev [ Day | 3-Days | 7-Days ] Next
First Last

Start Time:     :
End Time:     :     
Time (in GMT) :00 :50 :40 :30 :20 :10
Previous Next [ Day | 3-Days | 7-Days ]
First Last
Prev [ Day | 3-Days | 7-Days ] Next
First Last


123 => good data
MM => data is determined as missing
-- => data not received/configured
Back to Top Back to Top
9/26/2022 00:00 to 23:10 22.04 21.94 21.92 21.89 21.90 21.96
9/25/2022 23:00 to 22:10 21.96 21.86 21.88 21.88 21.83 21.69
9/25/2022 22:00 to 21:10 21.72 21.74 21.72 21.71 21.71 21.78
9/25/2022 21:00 to 20:10 21.79 21.94 21.93 22.12 22.00 21.92
9/25/2022 20:00 to 19:10 21.86 21.83 21.78 21.76 21.72 21.64
9/25/2022 19:00 to 18:10 21.55 21.52 21.28 21.29 21.28 21.12
9/25/2022 18:00 to 17:10 20.91 21.59 21.45 21.29 21.28 21.24
9/25/2022 17:00 to 16:10 21.20 21.89 21.96 21.85 21.87 21.79
9/25/2022 16:00 to 15:10 21.73 21.56 21.53 21.60 21.59 21.52
9/25/2022 15:00 to 14:10 21.47 21.41 21.31 21.22 21.03 20.81
9/25/2022 14:00 to 13:10 21.13 21.28 21.25 21.16 21.07 21.18
9/25/2022 13:00 to 12:10 21.24 21.31 21.26 21.22 21.07 20.81
9/25/2022 12:00 to 11:10 21.07 21.35 21.35 21.29 21.27 21.13
9/25/2022 11:00 to 10:10 21.03 21.07 21.06 21.03 20.95 20.67
9/25/2022 10:00 to 9:10 21.18 21.27 21.24 21.25 21.19 21.21
9/25/2022 09:00 to 8:10 21.22 21.19 21.33 21.37 21.37 21.34
9/25/2022 08:00 to 7:10 21.28 21.30 21.32 21.26 21.23 21.25
9/25/2022 07:00 to 6:10 21.17 21.14 21.09 21.10 21.16 21.07
9/25/2022 06:00 to 5:10 21.23 21.40 21.31 21.27 21.24 21.04
9/25/2022 05:00 to 4:10 20.91 20.71 21.30 21.36 21.31 21.25
9/25/2022 04:00 to 3:10 21.27 21.29 21.28 21.26 21.17 21.17
9/25/2022 03:00 to 2:10 20.95 20.88 20.83 20.72 20.93 21.39
9/25/2022 02:00 to 1:10 21.45 21.53 21.52 21.39 21.49 21.43
9/25/2022 01:00 to 0:10 21.27 20.94 20.81 20.55 21.14 21.75